GFSMW_500_rhum_156.txt.gz
RH
24 32 34 36 34 29 27 28 28 27 25 25 24 24 26 24 28 33 36 31 31 27 39 38 45 95 89 92 97 62 66 71 54 60 63 70 58 33 30 38 36 67 64
16 23 30 30 28 27 23 21 21 28 29 29 27 24 22 23 22 21 22 28 29 26 24 24 25 84 90 89 90 92 69 74 68 80 97 97 91 88 67 45 70 71 70
16 20 24 21 19 17 18 19 21 23 22 22 22 22 22 22 21 18 15 14 15 20 25 24 23 22 50 93 77 87 98 80 67 85 99 95 89 89 98 92 74 66 68
16 14 16 15 13 12 11 12 11 10 10 12 12 13 14 14 13 13 13 13 14 12 10 12 18 23 38 68 64 90 93 97 92 95 84 86 94 95 93 97 97 61 57
16 17 16 14 16 16 12 10 10 9 9 9 9 10 11 11 11 14 12 11 11 10 11 11 12 8 14 22 54 61 93 98 98 96 94 84 93 96 93 94 100 97 83
27 26 21 20 20 20 16 14 18 19 18 18 19 16 14 14 14 14 13 12 12 11 10 8 13 14 10 9 19 33 70 94 91 94 94 96 91 86 93 100 94 96 100
42 31 29 40 52 55 50 41 33 27 21 17 12 10 11 12 12 12 12 9 9 11 14 13 10 15 18 16 12 22 46 67 96 82 92 92 92 97 99 97 97 98 97
48 54 62 64 62 58 51 36 20 8 5 4 4 4 4 3 3 3 3 5 8 7 6 12 16 18 21 22 22 20 28 35 54 76 85 95 99 100 100 96 97 94 96
61 64 65 62 59 59 40 16 7 3 3 3 3 3 3 3 3 3 2 2 2 2 4 4 4 15 22 26 33 24 14 44 29 96 94 76 88 90 98 91 99 98 98
86 82 81 74 55 35 16 5 3 4 7 12 9 7 12 52 30 44 51 46 28 10 3 2 2 3 12 21 25 30 25 40 41 37 76 94 92 96 91 92 86 86 90
64 63 68 49 26 7 4 6 12 20 27 31 16 17 53 55 61 73 74 62 68 59 58 23 3 3 3 11 12 23 31 38 67 55 76 96 97 97 92 88 92 85 74
68 72 27 6 5 10 16 18 23 32 33 37 22 50 86 72 84 98 98 74 72 79 66 66 55 12 3 4 6 12 21 32 34 60 60 90 95 94 95 90 81 80 72
47 14 6 6 11 19 18 23 36 35 42 26 49 90 100 92 89 98 98 100 99 100 87 79 76 66 6 3 5 5 9 20 28 38 54 66 73 81 84 100 94 79 64
10 10 10 14 19 23 34 36 46 38 36 42 80 100 100 100 97 100 100 100 100 100 100 99 76 72 31 79 42 3 5 11 20 30 40 59 69 64 61 74 75 71 70
8 12 11 21 20 37 42 52 52 53 40 66 97 98 99 100 99 99 97 100 100 100 100 99 100 100 73 100 34 6 4 7 12 19 31 35 40 46 68 67 60 75 96
11 13 16 26 26 41 34 58 63 50 44 49 96 94 93 98 100 100 100 100 100 98 100 100 100 100 100 88 92 56 83 10 16 35 43 50 78 75 97 67 82 94 100
15 16 20 36 53 40 39 51 76 49 46 52 63 81 57 93 96 100 100 100 100 100 100 100 100 100 100 98 100 90 88 91 98 100 97 89 90 90 73 57 49 64 70
20 20 22 38 75 40 36 27 36 53 51 48 50 56 48 46 68 78 100 100 100 100 100 100 100 100 100 98 98 100 82 83 100 90 92 99 73 94 55 42 36 39 50
20 28 27 43 74 43 31 34 22 24 26 31 35 42 42 44 39 43 52 98 100 99 100 100 100 100 100 100 100 99 99 100 80 99 97 95 96 72 42 52 48 38 49
45 34 34 44 59 60 30 33 28 28 32 22 19 22 32 35 38 36 33 49 72 96 100 100 100 100 100 97 71 61 79 95 98 81 85 98 97 65 49 55 64 57 60
40 39 50 45 59 69 53 30 31 44 43 25 16 14 13 16 26 34 33 30 29 28 35 76 97 100 100 100 100 100 92 98 92 99 100 91 78 76 80 60 67 90 82
47 40 46 54 66 66 71 48 30 35 48 37 20 16 14 11 10 11 15 18 22 24 23 21 24 65 95 96 100 100 100 82 100 98 100 99 91 95 87 60 67 98 81
71 71 66 65 65 61 62 66 54 29 34 32 26 18 14 11 8 8 8 8 9 11 12 13 16 18 25 33 90 98 100 100 98 94 100 92 85 95 93 89 88 86 68
65 86 90 86 86 82 75 71 59 51 33 32 27 22 16 12 13 8 6 6 6 5 5 7 10 11 11 13 16 17 61 88 96 100 100 100 100 100 100 100 95 82 74
69 63 77 85 83 79 72 67 65 60 48 38 30 26 26 20 18 15 8 8 7 7 6 5 5 5 6 8 10 11 12 14 34 52 72 89 93 100 100 93 90 86 78
78 89 87 75 66 56 45 36 37 39 38 35 29 28 29 32 28 21 14 8 8 8 8 8 8 7 5 5 4 4 5 8 10 10 19 26 54 63 65 98 100 100 91

GFSMW_500_rhum_162.txt.gz
RH
36 37 36 32 30 30 34 37 36 34 28 20 14 16 16 16 16 15 14 13 10 9 11 13 15 19 25 33 39 39 39 59 66 79 55 77 100 70 77 67 79 75 62
27 22 20 19 19 20 22 27 34 35 37 30 20 15 16 17 15 14 12 11 10 9 9 9 10 16 20 23 27 33 33 36 91 73 75 55 79 100 85 97 84 90 80
24 22 20 19 18 18 21 25 28 28 27 25 23 23 23 22 23 24 22 21 18 16 14 11 9 10 11 16 23 23 24 22 31 46 67 80 92 88 100 97 94 96 93
23 23 22 21 21 23 26 30 33 35 35 38 38 36 31 30 28 26 24 22 22 21 17 16 14 11 10 10 12 20 20 20 17 25 42 50 53 67 99 100 99 99 98
29 28 26 24 23 25 27 26 30 40 43 35 29 26 23 20 18 18 21 24 24 23 27 26 24 21 20 16 12 12 15 16 16 17 19 26 33 35 68 100 88 93 100
35 32 35 42 46 46 52 48 38 28 26 23 22 22 24 29 29 29 29 28 28 25 24 23 20 16 14 15 17 17 14 14 16 13 14 16 20 27 29 72 96 94 97
40 44 49 53 46 36 34 32 32 35 36 37 40 40 36 34 33 29 25 21 17 12 13 11 7 6 8 6 5 9 14 16 13 14 13 12 15 15 25 48 85 95 96
56 51 46 44 42 40 42 47 49 43 44 45 51 48 35 25 13 6 4 4 3 3 3 2 2 2 2 2 3 3 2 6 13 13 13 12 11 12 14 32 100 96 100
67 62 58 51 44 50 55 50 48 48 48 52 36 10 5 4 4 3 4 6 6 8 8 26 35 33 24 21 15 5 2 2 2 9 13 12 12 13 12 19 44 72 63
68 60 53 53 54 55 51 56 61 56 48 16 5 4 4 5 10 13 13 40 60 48 42 49 51 49 43 42 46 46 38 7 2 2 7 13 12 13 15 22 26 40 56
54 55 59 70 70 66 73 66 55 35 7 4 4 4 12 16 22 39 64 75 94 71 62 63 66 68 68 82 76 54 35 45 22 2 2 6 12 12 14 21 28 34 43
65 71 74 75 74 79 64 53 13 5 5 4 4 11 14 21 29 52 55 97 87 85 72 68 74 90 90 81 84 70 84 83 57 37 3 2 7 11 13 17 28 46 40
76 71 74 81 77 65 36 7 5 5 4 4 14 15 14 26 36 38 35 92 83 83 88 81 84 100 100 93 83 69 80 78 73 70 37 3 2 10 15 21 27 38 42
76 74 74 69 65 29 7 5 5 5 5 9 24 18 18 34 34 30 40 41 68 65 94 98 85 100 93 89 100 97 71 82 98 89 54 9 2 5 12 27 32 31 47
80 72 70 57 19 8 5 6 5 5 6 11 28 28 17 25 29 34 36 34 33 40 56 99 97 97 92 99 100 100 100 100 79 100 100 89 8 3 11 16 34 40 44
79 74 42 25 11 7 5 6 6 8 6 16 25 39 19 15 27 25 19 20 23 30 33 74 100 100 100 96 93 96 100 100 100 95 100 100 100 30 5 6 12 32 52
80 45 32 22 10 7 6 7 8 10 10 19 19 35 38 16 15 26 24 14 13 12 26 26 85 89 100 100 100 100 90 99 100 100 100 100 100 71 74 18 9 13 49
43 40 36 19 10 8 7 8 10 16 18 28 29 31 46 41 17 15 24 26 15 12 10 12 21 79 33 94 100 100 100 100 100 100 100 100 96 100 100 31 9 9 35
34 28 23 14 9 8 9 11 14 20 28 32 35 47 58 58 55 24 16 23 25 14 11 8 8 12 36 20 81 100 100 100 100 89 96 100 100 100 98 40 14 99 48
19 17 13 9 9 10 11 21 27 37 53 59 52 47 45 48 53 53 38 17 23 20 11 8 6 7 10 25 16 44 100 100 100 100 100 100 100 99 99 100 100 84 95
9 9 10 10 11 13 22 45 62 61 56 68 78 78 72 64 56 60 57 40 24 25 18 13 10 7 8 8 11 12 46 99 100 100 100 100 100 97 95 40 27 20 37
11 13 13 13 14 17 30 51 76 77 79 77 72 64 56 45 41 46 47 53 49 32 29 22 16 9 7 8 8 9 10 69 87 96 98 97 100 100 96 100 96 82 64
16 16 14 13 16 28 36 51 93 82 90 88 73 63 59 54 51 48 49 45 42 44 38 28 27 21 10 8 7 7 7 9 73 34 91 100 100 100 100 100 98 98 100
17 11 13 20 25 32 41 57 69 56 47 42 38 35 30 27 25 22 22 23 29 37 41 38 30 24 24 11 9 8 7 6 8 20 30 58 90 100 100 100 100 100 100
11 19 23 28 38 46 52 54 48 38 29 26 24 21 19 18 17 17 18 18 18 17 18 26 36 35 26 24 13 12 10 9 8 6 6 10 12 53 90 96 100 100 100
22 32 36 38 38 36 28 24 24 21 17 17 17 16 15 14 14 14 14 13 12 13 17 17 17 25 35 29 26 19 13 14 13 11 9 8 6 9 23 62 53 88 100

GFSMW_500_rhum_165.txt.gz
RH
38 40 40 40 36 24 20 19 19 18 18 18 19 22 26 29 28 25 24 22 18 15 13 14 16 14 12 11 10 14 12 13 14 21 28 33 92 85 55 70 76 98 100
38 38 32 25 20 18 19 20 22 23 23 20 20 26 33 33 32 29 29 29 29 30 31 30 29 26 25 22 20 19 14 12 15 10 14 22 35 59 92 72 86 82 96
44 35 30 27 25 25 26 27 27 28 26 23 23 24 28 32 38 42 39 35 31 29 27 26 24 22 22 20 20 20 20 16 14 17 11 10 19 34 37 91 96 85 75
40 34 32 31 32 34 35 35 34 32 28 28 27 31 34 33 28 23 22 21 21 20 19 18 17 16 18 16 16 21 24 20 16 13 15 11 9 21 26 36 87 96 91
41 38 38 40 41 41 40 37 32 31 34 34 31 25 20 19 22 25 27 27 27 26 23 22 20 20 20 21 20 21 25 29 27 18 11 18 15 11 17 22 33 71 92
49 50 49 47 43 39 40 42 40 37 34 32 27 23 29 35 34 28 28 26 24 20 14 10 9 8 8 8 11 13 18 21 24 22 21 12 16 18 15 18 21 26 53
59 52 48 46 46 49 46 40 40 42 38 32 32 35 38 36 34 30 22 14 8 5 4 3 3 3 3 3 3 3 4 8 13 20 16 18 15 14 19 20 19 20 24
54 53 53 53 45 46 46 48 41 35 36 43 41 44 44 42 20 11 6 5 4 3 3 4 18 25 30 39 32 26 17 6 3 5 13 10 14 16 14 16 19 18 18
54 52 50 50 51 54 49 38 35 39 47 48 51 56 41 10 6 5 4 4 5 6 15 44 45 50 47 45 45 41 38 31 29 14 3 3 6 8 15 14 15 16 18
46 45 49 52 53 49 40 40 42 57 59 63 58 24 5 6 5 4 5 10 11 22 45 66 71 66 67 64 62 51 47 46 52 31 27 22 7 3 4 12 14 16 16
44 51 49 47 45 48 48 51 65 63 62 56 10 5 6 6 5 6 10 15 18 35 35 40 61 69 77 75 77 85 72 71 70 60 50 44 24 13 3 3 11 14 15
44 39 38 43 56 62 61 65 59 59 47 9 6 7 6 6 5 9 12 12 24 24 25 34 34 60 78 78 81 92 88 69 79 80 64 66 62 46 20 3 3 10 14
41 48 61 66 67 67 71 65 59 47 10 5 7 8 7 6 6 14 13 11 20 30 30 29 30 35 63 93 78 78 90 77 86 85 67 59 75 72 65 23 2 3 11
63 58 52 54 64 75 72 63 40 14 5 5 7 7 7 6 10 17 16 12 11 22 22 17 18 28 33 92 89 80 77 82 88 89 86 84 70 76 75 40 5 2 6
61 63 60 59 64 74 74 38 19 8 5 6 7 7 6 7 10 18 26 20 12 11 23 19 12 15 18 66 81 89 81 81 96 99 96 100 83 100 99 58 12 2 3
69 70 71 70 85 77 38 22 11 6 7 7 8 7 7 8 10 14 20 30 26 13 11 23 21 12 9 15 77 58 94 80 82 100 100 100 100 100 100 81 98 34 48
67 70 79 88 76 34 20 13 7 7 8 8 9 9 10 13 18 24 28 31 41 39 21 14 24 18 10 8 24 58 72 100 82 85 100 100 100 100 100 75 98 100 12
75 81 82 50 26 18 11 8 9 9 10 11 12 13 18 28 46 48 41 39 43 41 44 35 17 22 13 8 7 22 32 79 100 86 100 93 98 100 100 91 100 80 97
72 61 37 18 11 8 10 12 13 14 14 16 24 54 61 61 76 78 73 69 64 54 51 50 35 20 22 14 9 8 15 33 96 100 98 100 99 96 100 100 100 100 72
64 24 14 9 9 13 15 16 15 14 15 25 54 68 66 78 77 69 64 57 49 45 42 46 52 41 23 23 15 9 10 9 38 95 100 100 100 100 100 99 100 100 100
29 18 8 13 16 18 17 12 11 14 22 29 59 58 50 52 53 44 41 35 30 32 36 43 47 46 46 31 24 17 10 13 11 33 97 100 100 100 98 100 100 92 96
9 13 18 20 19 12 9 11 15 19 20 25 29 29 30 28 25 23 23 23 22 21 20 20 20 29 40 44 36 23 17 11 14 13 61 92 100 100 100 100 100 100 100
18 20 20 14 8 9 12 14 17 21 24 26 23 18 16 16 15 14 14 14 14 14 13 12 14 17 18 28 39 38 22 14 11 12 15 80 87 98 100 100 99 100 100
21 17 9 7 9 12 16 20 22 23 22 18 16 16 16 17 17 16 16 16 15 14 13 11 10 10 11 14 22 32 37 22 12 10 10 12 22 73 92 99 100 100 100
12 7 8 9 14 17 18 19 22 20 16 16 17 18 18 19 21 21 20 18 15 13 10 8 6 6 7 9 12 19 29 35 23 11 10 10 10 12 22 70 96 100 100
7 8 9 14 18 19 22 24 19 17 17 18 20 20 21 23 26 24 22 19 16 13 8 5 5 6 5 5 7 13 18 26 34 25 13 11 11 9 10 16 40 83 99

GFSMW_500_rhum_168.txt.gz
RH
32 32 30 28 31 33 33 30 24 22 20 20 20 22 26 30 31 30 28 25 22 22 25 28 27 24 24 26 27 25 23 20 18 18 14 11 11 13 19 25 35 49 80
38 37 35 37 36 34 31 27 25 24 26 29 35 37 36 35 34 34 35 34 30 26 23 21 20 20 20 20 21 21 22 24 25 24 21 19 16 12 10 12 22 29 52
31 34 36 37 36 35 31 30 31 34 37 41 41 37 35 37 36 34 29 25 22 19 16 16 16 15 14 14 14 14 15 16 17 17 17 19 18 21 17 12 15 24 31
32 38 39 41 43 41 39 41 44 47 48 45 40 34 34 31 30 28 26 23 20 20 22 20 17 16 15 13 13 12 12 10 9 12 14 16 16 15 17 18 14 17 18
37 42 46 50 50 49 51 56 56 51 45 38 33 32 32 32 29 25 27 28 25 25 23 23 18 15 13 9 7 5 4 4 5 8 13 17 20 19 14 13 17 16 18
48 52 61 62 62 65 63 55 49 42 38 37 37 38 34 25 21 22 24 23 31 32 19 11 9 5 3 3 3 3 4 4 2 2 2 5 10 20 22 15 13 17 16
59 66 74 76 67 57 53 47 41 40 41 41 40 29 22 24 25 27 32 40 31 12 7 5 4 4 4 7 19 24 28 31 27 24 18 6 2 4 12 21 18 14 16
81 76 66 57 56 50 41 35 37 40 37 30 27 27 29 34 32 39 45 18 8 6 5 5 5 5 14 34 41 43 41 43 37 36 32 34 27 6 3 6 18 20 19
70 58 58 60 48 33 34 35 34 31 29 31 38 43 44 37 41 38 12 8 7 7 6 6 6 7 22 34 27 27 42 53 57 58 51 44 40 33 24 5 3 13 19
72 70 63 51 37 34 34 34 33 33 38 50 52 52 50 44 36 11 8 8 8 8 7 8 9 13 16 25 24 26 39 67 74 85 88 71 52 48 35 25 20 4 10
72 64 56 49 41 36 34 36 36 40 58 58 57 59 53 40 12 7 9 10 10 9 8 9 9 12 22 19 23 23 32 61 76 84 86 77 69 63 64 55 36 24 10
65 60 58 56 43 38 39 40 45 50 57 61 62 60 39 12 6 8 10 10 9 9 9 12 12 10 14 23 22 23 28 63 73 70 70 69 72 75 58 61 59 51 32
65 63 62 50 46 44 44 50 54 56 64 73 62 39 15 6 8 11 12 11 9 8 10 18 20 13 10 16 18 14 18 48 75 68 66 78 76 78 75 59 40 64 58
72 66 54 53 52 52 58 60 62 70 78 59 28 13 6 9 12 12 11 11 9 9 10 14 25 26 15 11 18 16 10 16 63 68 71 61 70 81 90 84 77 51 74
73 61 58 61 64 65 62 73 72 75 49 23 10 7 11 13 13 14 14 13 11 11 16 23 29 37 38 20 14 21 14 8 28 38 65 67 64 86 88 90 85 71 68
77 67 65 66 62 63 77 77 65 34 16 8 9 13 15 16 16 14 16 25 39 56 66 62 51 44 42 44 27 17 20 10 7 18 20 72 66 86 100 100 88 97 98
70 61 63 60 70 75 72 53 26 10 8 12 16 18 17 12 14 42 46 66 68 67 66 62 57 53 49 44 47 27 19 18 11 8 12 66 96 98 100 100 100 100 99
64 57 61 63 69 71 51 15 9 10 15 18 18 10 9 14 27 36 34 42 54 58 59 57 54 50 48 45 42 50 32 21 17 8 8 22 98 100 100 99 100 100 100
58 56 58 66 64 37 19 9 13 18 19 13 8 9 12 16 20 23 23 23 24 25 28 31 33 28 28 35 45 40 46 39 24 16 8 11 54 100 97 100 100 100 100
60 60 60 42 37 24 10 17 20 17 9 8 9 14 18 21 20 14 13 14 14 14 14 14 13 13 14 16 21 27 31 35 40 25 15 10 16 98 100 100 100 100 90
62 55 44 41 11 14 19 20 12 8 8 12 16 20 20 14 13 14 14 14 15 17 17 16 14 13 13 12 12 12 19 22 26 36 24 13 12 70 100 100 100 100 100
52 44 22 11 18 21 18 9 8 9 14 18 21 19 13 12 13 14 15 16 17 18 16 15 13 12 10 10 9 9 9 12 16 20 33 20 13 23 96 100 100 100 100
25 14 15 21 21 14 8 9 10 15 18 21 20 15 14 14 14 15 16 18 21 20 18 17 15 12 11 10 7 5 6 8 9 14 21 29 14 13 56 98 100 100 100
17 20 22 19 10 8 10 12 15 18 22 20 18 15 15 16 16 17 19 23 24 22 21 19 17 14 12 10 5 4 4 4 8 9 14 26 23 12 13 50 99 100 100
22 22 16 8 8 10 12 16 19 23 20 20 17 16 17 21 22 22 24 28 28 26 24 22 19 15 14 9 5 5 6 5 4 9 11 17 29 14 12 18 34 98 100
22 14 7 8 9 11 15 20 24 20 20 20 19 20 24 27 31 33 33 32 32 30 28 25 21 18 16 7 6 7 8 7 6 6 9 15 29 25 12 12 20 24 88

GFSMW_500_rhum_171.txt.gz
RH
11 14 19 21 24 24 24 24 26 28 30 30 27 27 29 32 37 43 43 41 34 27 25 24 22 21 21 21 19 18 16 16 15 14 15 17 23 27 28 17 15 12 13
19 22 22 22 22 23 25 26 27 30 35 36 36 38 42 49 50 45 39 33 29 28 27 26 24 21 17 13 11 9 9 11 10 8 7 7 9 11 15 22 24 21 15
24 25 25 27 31 36 35 33 32 33 40 44 47 53 55 51 45 37 32 29 26 26 23 17 14 14 14 14 15 14 13 13 14 12 9 7 6 6 10 10 13 19 22
36 45 45 43 41 40 40 38 43 51 54 57 62 58 51 42 33 29 27 26 22 19 15 14 14 15 17 23 23 20 16 13 10 8 6 6 5 5 4 6 10 10 15
49 42 31 29 34 39 42 49 58 61 64 61 56 48 34 25 23 25 24 21 19 19 21 21 24 30 28 22 15 8 3 3 3 3 2 2 2 2 2 3 5 8 10
40 32 27 28 31 42 50 60 66 64 58 51 37 23 20 22 24 22 20 19 24 27 24 27 26 15 10 6 4 4 4 3 4 4 8 10 11 15 13 3 2 3 7
33 32 34 39 46 56 68 69 60 54 53 32 20 18 22 24 21 20 23 29 32 35 34 28 13 8 7 7 6 5 5 4 7 22 24 30 21 20 20 16 11 3 2
31 36 44 51 57 66 74 64 62 57 39 26 20 22 23 20 20 26 32 33 38 41 34 12 9 9 9 9 7 6 6 6 19 27 21 22 28 39 44 34 23 17 6
46 58 65 69 75 83 74 65 57 49 43 29 26 27 25 26 32 39 41 40 45 40 10 8 10 11 11 11 8 8 7 10 20 22 21 19 38 60 66 66 42 22 18
75 76 75 83 91 75 67 60 54 50 37 31 32 34 34 38 37 39 47 53 41 14 7 11 12 13 12 11 9 9 10 10 17 19 19 18 49 68 72 86 75 49 30
73 76 86 85 64 67 61 59 54 42 39 40 41 41 38 36 42 57 54 36 12 7 11 13 14 14 11 9 9 15 16 12 12 19 19 21 49 67 63 65 71 66 56
76 85 92 76 74 76 67 57 49 44 45 47 48 38 45 52 52 47 23 8 8 12 15 16 15 14 12 9 11 16 26 13 11 15 16 15 26 64 69 60 68 67 74
84 99 87 71 94 93 70 54 48 47 44 43 34 44 53 56 38 14 7 11 16 17 16 13 14 14 17 26 31 35 36 45 16 15 20 14 10 33 54 62 60 53 61
99 99 80 73 98 96 75 52 45 40 44 42 50 58 55 28 10 9 15 18 14 9 8 12 31 42 47 54 58 52 44 42 42 19 18 18 9 8 24 42 61 50 54
97 92 91 96 100 86 65 48 44 49 51 58 63 52 24 14 11 18 16 8 7 9 10 19 38 52 56 61 57 51 50 49 46 45 23 20 17 9 8 19 52 68 68
87 97 98 96 87 68 54 50 53 54 59 65 43 27 10 14 19 11 6 6 10 13 14 15 17 18 22 36 36 43 50 49 43 42 43 24 21 16 9 9 29 76 86
91 100 100 84 76 68 61 56 52 61 56 38 28 11 18 18 8 6 7 13 14 12 11 11 12 13 13 13 13 14 21 27 38 42 34 40 26 20 14 10 14 75 90
100 97 86 90 86 71 59 54 60 47 43 18 12 19 17 7 6 12 14 12 11 11 12 12 14 15 14 13 12 12 12 12 13 18 31 27 33 24 19 13 12 69 99
94 94 92 85 77 67 63 60 43 43 12 15 20 14 7 6 13 15 12 11 13 13 14 15 15 15 16 16 15 13 11 10 11 11 11 22 22 25 22 18 11 40 100
88 96 91 86 77 68 60 44 32 10 18 21 12 7 7 14 17 15 12 12 13 14 15 16 18 19 20 20 18 15 13 11 9 9 9 10 16 19 19 21 14 20 100
96 87 82 74 68 58 43 21 13 20 20 9 7 8 15 18 18 14 14 14 15 16 17 18 22 24 24 21 18 17 14 12 9 8 7 7 8 15 16 21 20 15 96
92 74 64 59 49 27 18 17 22 17 8 8 9 15 18 20 18 15 15 17 17 19 21 24 28 28 25 24 21 19 16 12 10 9 7 5 7 8 15 17 24 13 68
72 62 66 39 25 25 22 22 14 7 8 9 15 19 21 20 18 15 16 21 23 27 30 33 32 30 29 26 24 19 16 14 11 7 4 3 3 8 11 14 25 15 49
66 58 28 24 26 23 21 10 7 8 9 15 19 21 20 20 18 19 24 30 35 39 40 39 34 32 31 28 23 19 17 14 7 4 5 5 4 6 10 13 26 20 21
46 28 29 24 24 18 8 7 8 9 15 20 22 20 20 19 22 27 37 38 42 48 47 38 36 34 32 28 23 20 18 11 5 6 8 7 6 4 10 13 27 24 15
31 28 26 23 15 7 7 8 10 13 18 23 21 22 23 26 30 35 38 34 36 53 48 41 40 35 32 28 26 23 15 7 7 8 9 9 7 5 9 13 26 27 14

GFSMW_500_rhum_174.txt.gz
RH
27 37 24 8 9 16 21 21 23 30 35 38 37 32 31 31 35 35 35 38 35 36 37 30 24 20 18 17 16 15 14 12 11 10 10 10 9 8 9 9 10 12 16
31 37 16 11 21 23 26 38 40 37 33 32 32 32 36 41 44 42 39 41 42 36 25 17 15 14 14 13 12 12 11 11 10 9 10 11 16 15 12 10 10 10 9
32 17 14 23 28 38 44 37 27 27 28 29 34 41 46 49 49 45 44 39 29 18 12 9 9 10 11 12 15 16 15 14 20 20 14 12 11 9 8 8 8 8 8
16 21 26 27 34 42 41 35 32 33 35 38 44 52 57 55 50 50 34 19 17 13 9 9 9 9 10 14 20 23 20 19 17 14 10 8 8 8 6 6 5 5 5
25 30 32 35 43 44 38 29 30 39 44 50 58 63 63 56 54 39 19 21 13 12 11 11 12 15 18 22 25 28 24 14 9 7 5 5 5 4 3 4 2 2 2
39 37 40 46 48 37 28 31 44 50 55 64 73 74 63 52 46 37 25 18 16 15 13 15 20 28 28 33 33 16 10 8 8 7 6 6 6 4 3 4 3 2 5
55 57 56 54 38 29 36 54 60 65 72 80 81 68 56 49 44 29 23 18 16 13 12 15 22 34 45 36 15 9 10 11 10 10 9 8 6 5 5 6 9 10 14
72 59 47 32 33 60 71 73 72 74 83 77 54 55 52 46 34 28 24 19 15 12 16 30 43 42 33 17 8 10 13 14 14 14 12 10 8 6 10 16 16 14 12
49 36 34 47 63 76 83 85 88 87 67 58 61 58 50 39 31 25 22 18 16 24 32 42 37 22 11 8 10 14 16 16 16 13 11 10 10 10 10 18 19 17 19
36 46 56 70 74 75 87 90 93 84 68 68 75 57 45 36 28 26 22 19 30 41 42 26 12 9 11 15 17 17 15 15 14 12 9 15 19 13 11 17 18 18 28
55 80 86 78 86 76 82 95 98 79 65 93 85 58 43 34 30 26 25 34 46 42 25 12 13 17 17 10 6 5 6 8 14 17 16 19 30 18 12 16 17 17 37
89 88 76 87 87 81 91 100 98 83 86 91 90 58 39 34 30 26 36 48 43 20 12 18 16 6 4 6 7 7 11 15 35 56 46 38 43 43 18 15 19 15 17
94 93 84 94 87 95 98 97 98 93 91 96 67 45 40 34 30 41 46 43 14 15 19 8 5 6 7 8 9 9 10 13 30 44 53 54 51 48 40 20 19 16 12
90 98 96 94 90 100 97 95 97 93 94 66 53 50 41 36 44 45 39 12 18 18 6 5 8 8 8 10 10 10 11 11 12 13 17 33 43 40 41 40 26 19 17
100 100 91 85 100 100 100 91 99 90 71 65 62 49 41 49 47 36 12 20 16 6 5 7 7 9 9 12 12 12 12 12 12 12 11 11 12 24 32 31 35 25 19
97 95 79 87 96 100 100 100 92 81 80 73 55 50 52 49 32 12 20 15 6 5 9 8 9 10 10 13 14 14 16 17 17 15 14 12 11 9 11 29 29 33 20
99 93 89 97 99 100 100 99 93 87 77 66 62 59 48 26 13 21 15 6 5 11 9 9 10 11 12 13 16 16 17 18 19 18 16 14 12 11 9 10 22 28 30
97 98 97 97 100 100 99 95 90 89 79 71 62 49 18 15 21 14 6 6 11 14 11 10 11 12 13 14 16 17 18 21 22 21 18 16 13 12 11 9 9 19 25
99 100 100 100 97 78 84 91 91 84 80 68 40 16 18 22 13 7 6 12 17 16 12 13 13 14 14 16 21 24 26 26 22 19 18 17 15 13 11 9 8 8 18
100 100 100 96 83 94 94 88 86 77 62 27 14 20 22 10 7 7 13 18 19 17 14 14 16 18 22 29 34 33 28 22 22 21 21 18 15 12 11 9 8 7 9
98 99 97 93 100 99 88 80 78 46 22 19 22 20 8 7 7 13 18 20 20 18 15 18 27 35 41 44 41 31 27 26 23 21 20 17 14 12 10 8 7 6 7
100 90 88 100 96 86 74 73 28 23 24 23 17 7 8 8 13 18 21 20 19 17 22 32 36 37 42 40 33 32 29 26 24 22 20 17 14 11 7 5 4 4 6
100 99 100 94 77 70 56 21 28 25 23 13 7 8 8 13 19 21 21 20 20 24 32 36 33 33 34 34 35 33 30 27 27 24 21 17 12 7 5 4 4 4 5
100 100 87 69 61 34 33 31 26 21 10 7 8 9 13 17 22 21 21 23 26 31 35 34 32 32 34 38 37 33 29 30 28 24 20 12 7 6 6 6 6 5 5
100 88 66 45 31 36 29 26 18 8 8 9 10 12 16 20 23 22 22 26 30 33 33 32 32 35 40 43 37 32 31 30 26 24 15 8 7 8 9 9 8 6 7
86 56 27 35 35 29 24 14 7 7 9 11 12 14 17 21 28 22 22 25 29 31 34 38 36 40 49 42 40 36 36 32 29 23 11 8 9 10 11 11 9 6 10